Overview Statistics Trail Chart Weather Telemetry Raw packets
 

This is the latest recevied weather packets stored in our database for station/object KN6WGU. If no packets are shown the sender has not sent any weather packets the latest 10 day(s).

<< 37 38 39 40 41 42 43 >>
Time Temp. Humidity Pressure Rain* Wind** Luminosity Snow
1788360780 30.56° C 71% 1009.9 hPa 0 mm - 145 W/m² -
1788360475 30° C 71% 1009.7 hPa 0 mm - 148 W/m² -
1788360171 30° C 72% 1009.7 hPa 0 mm - 137 W/m² -
1788359866 29.44° C 74% 1009.9 hPa 0 mm - 111 W/m² -
1788359561 29.44° C 73% 1009.8 hPa 0 mm - 117 W/m² -
1788359256 29.44° C 74% 1009.7 hPa 0 mm - 107 W/m² -
1788358953 28.89° C 75% 1009.6 hPa 0 mm - 82 W/m² -
1788358652 28.89° C 75% 1009.6 hPa 0 mm - 75 W/m² -
1788358348 28.89° C 76% 1009.7 hPa 0 mm - 71 W/m² -
1788358043 28.89° C 77% 1009.6 hPa 0 mm - 71 W/m² -
1788357738 28.33° C 77% 1009.5 hPa 0 mm - 72 W/m² -
1788357437 28.33° C 77% 1009.6 hPa 0 mm - 72 W/m² -
1788357133 28.33° C 77% 1009.5 hPa 0 mm - 76 W/m² -
1788356832 28.33° C 78% 1009.6 hPa 0 mm - 70 W/m² -
1788356529 28.33° C 78% 1009.3 hPa 0 mm - 69 W/m² -
1788356229 28.33° C 78% 1009.4 hPa 0 mm - 68 W/m² -
1788355928 28.33° C 78% 1009.4 hPa 0 mm - 68 W/m² -
1788355623 27.78° C 79% 1009.4 hPa 0 mm - 66 W/m² -
1788355319 27.78° C 79% 1009.1 hPa 0 mm - 65 W/m² -
1788355014 27.78° C 80% 1009.3 hPa 0 mm - 64 W/m² -
1788354710 27.78° C 80% 1009.3 hPa 0 mm - 63 W/m² -
1788354405 27.78° C 81% 1009.2 hPa 0 mm - 62 W/m² -
1788354101 27.22° C 82% 1009.1 hPa 0 mm - 60 W/m² -
1788353796 27.22° C 82% 1009.2 hPa 0 mm - 57 W/m² -
1788353491 27.22° C 82% 1009.2 hPa 0 mm - 56 W/m² -

* Rain latest hour (hover to see other rain measurements)
** Current wind speed in m/s (hover to see current wind gust speed)